• Em Portugal
  • Lista de países
  • Para 7 dias
  • Temperatura da água
  • Mapas de satélite
  • Mapa do tempo
  • Widgets de tempo
  • user-avatar
    Iniciar Sessão

    Previsão horária em Kirish

    Hoje, 11 Dezembro, Segunda-feira

    Tempo Temperatura Precipitação Vento Pressão Humidade
    00:00 +11°C° 0 mm 1 m/s 740 mmHg 91%
    01:00 +11°C° 0 mm 1 m/s 740 mmHg 91%
    02:00 +10°C° 0 mm 2 m/s 740 mmHg 91%
    03:00 +10°C° 0 mm 2 m/s 741 mmHg 90%
    04:00 +10°C° 0 mm 1 m/s 741 mmHg 90%
    05:00 +10°C° 0 mm 1 m/s 741 mmHg 89%
    06:00 +11°C° 0 mm 1 m/s 741 mmHg 88%
    07:00 +11°C° 0 mm 1 m/s 741 mmHg 87%
    08:00 +12°C° 0 mm 1 m/s 742 mmHg 83%
    09:00 +13°C° 0 mm 1 m/s 742 mmHg 77%
    10:00 +15°C° 0 mm 1 m/s 742 mmHg 71%
    11:00 +16°C° 0 mm 2 m/s 742 mmHg 64%
    12:00 +16°C° 0 mm 2 m/s 742 mmHg 64%
    13:00 +17°C° 0 mm 2 m/s 742 mmHg 63%
    14:00 +17°C° 0 mm 2 m/s 742 mmHg 62%
    15:00 +16°C° 0 mm 1 m/s 742 mmHg 70%
    16:00 +14°C° 0 mm 1 m/s 741 mmHg 77%
    17:00 +13°C° 0 mm 1 m/s 741 mmHg 84%
    18:00 +13°C° 0 mm 1 m/s 742 mmHg 85%
    19:00 +12°C° 0 mm 1 m/s 742 mmHg 86%
    20:00 +12°C° 0 mm 1 m/s 742 mmHg 87%
    21:00 +12°C° 0 mm 1 m/s 742 mmHg 85%
    22:00 +12°C° 0 mm 1 m/s 742 mmHg 83%
    23:00 +12°C° 0 mm 1 m/s 742 mmHg 81%

    Amanhã, 12 Dezembro, Terça-feira

    Tempo Temperatura Precipitação Vento Pressão Humidade
    00:00 +12°C° 0 mm 1 m/s 742 mmHg 79%
    01:00 +12°C° 0 mm 1 m/s 742 mmHg 77%
    02:00 +13°C° 0 mm 1 m/s 741 mmHg 75%
    03:00 +12°C° 0 mm 1 m/s 741 mmHg 74%
    04:00 +12°C° 0 mm 1 m/s 741 mmHg 73%
    05:00 +12°C° 0 mm 1 m/s 741 mmHg 72%
    06:00 +13°C° 0 mm 1 m/s 741 mmHg 71%
    07:00 +13°C° 0 mm 1 m/s 741 mmHg 69%
    08:00 +13°C° 0 mm 1 m/s 741 mmHg 67%
    09:00 +15°C° 0 mm 1 m/s 741 mmHg 60%
    10:00 +18°C° 0 mm 1 m/s 741 mmHg 53%
    11:00 +18°C° 0 mm 0 m/s 741 mmHg 46%
    12:00 +20°C° 0 mm 1 m/s 741 mmHg 45%
    13:00 +20°C° 0 mm 1 m/s 740 mmHg 44%
    14:00 +21°C° 0 mm 1 m/s 740 mmHg 43%
    15:00 +19°C° 0 mm 1 m/s 740 mmHg 50%
    16:00 +18°C° 0 mm 1 m/s 740 mmHg 56%
    17:00 +14°C° 0 mm 0 m/s 740 mmHg 63%
    18:00 +15°C° 0 mm 1 m/s 740 mmHg 62%
    19:00 +14°C° 0 mm 1 m/s 740 mmHg 61%
    20:00 +14°C° 0 mm 1 m/s 740 mmHg 61%
    21:00 +14°C° 0 mm 1 m/s 740 mmHg 61%
    22:00 +14°C° 0 mm 1 m/s 740 mmHg 61%
    23:00 +13°C° 0 mm 1 m/s 740 mmHg 60%

    Depois de amanhã, 13 Dezembro, Quarta-feira

    Tempo Temperatura Precipitação Vento Pressão Humidade
    00:00 +13°C° 0 mm 1 m/s 740 mmHg 61%
    01:00 +13°C° 0 mm 1 m/s 740 mmHg 61%
    02:00 +13°C° 0 mm 2 m/s 739 mmHg 61%
    03:00 +13°C° 0 mm 2 m/s 739 mmHg 61%
    04:00 +13°C° 0 mm 2 m/s 739 mmHg 61%
    05:00 +12°C° 0 mm 2 m/s 739 mmHg 61%
    06:00 +13°C° 0 mm 2 m/s 739 mmHg 60%
    07:00 +13°C° 0 mm 2 m/s 739 mmHg 59%
    08:00 +13°C° 0 mm 2 m/s 739 mmHg 58%
    09:00 +15°C° 0 mm 2 m/s 739 mmHg 51%
    10:00 +19°C° 0 mm 1 m/s 739 mmHg 44%
    11:00 +21°C° 0 mm 1 m/s 739 mmHg 38%
    12:00 +21°C° 0 mm 1 m/s 739 mmHg 37%
    13:00 +22°C° 0 mm 1 m/s 738 mmHg 35%
    14:00 +22°C° 0 mm 1 m/s 738 mmHg 34%
    15:00 +20°C° 0 mm 1 m/s 737 mmHg 40%
    16:00 +19°C° 0 mm 1 m/s 737 mmHg 46%
    17:00 +16°C° 0 mm 1 m/s 737 mmHg 52%
    18:00 +15°C° 0 mm 1 m/s 737 mmHg 52%
    19:00 +15°C° 0 mm 1 m/s 737 mmHg 52%
    20:00 +14°C° 0 mm 1 m/s 738 mmHg 51%
    21:00 +14°C° 0 mm 1 m/s 737 mmHg 52%
    22:00 +14°C° 0 mm 1 m/s 737 mmHg 52%
    23:00 +13°C° 0 mm 1 m/s 737 mmHg 52%

    14 Dezembro, Quinta-feira

    Tempo Temperatura Precipitação Vento Pressão Humidade
    00:00 +13°C° 0 mm 1 m/s 737 mmHg 53%
    01:00 +13°C° 0 mm 1 m/s 737 mmHg 53%
    02:00 +13°C° 0 mm 1 m/s 737 mmHg 54%
    03:00 +12°C° 0 mm 1 m/s 736 mmHg 53%
    04:00 +12°C° 0 mm 1 m/s 736 mmHg 52%
    05:00 +12°C° 0 mm 1 m/s 736 mmHg 51%
    06:00 +13°C° 0 mm 1 m/s 736 mmHg 51%
    07:00 +13°C° 0 mm 1 m/s 736 mmHg 50%
    08:00 +13°C° 0 mm 1 m/s 736 mmHg 49%
    09:00 +15°C° 0 mm 1 m/s 736 mmHg 45%
    10:00 +18°C° 0 mm 1 m/s 736 mmHg 41%
    11:00 +20°C° 0 mm 1 m/s 736 mmHg 36%
    12:00 +20°C° 0 mm 1 m/s 736 mmHg 38%
    13:00 +20°C° 0 mm 1 m/s 736 mmHg 39%
    14:00 +19°C° 0 mm 2 m/s 735 mmHg 41%
    15:00 +18°C° 0 mm 1 m/s 735 mmHg 49%
    16:00 +15°C° 0 mm 1 m/s 735 mmHg 58%
    17:00 +13°C° 0 mm 1 m/s 735 mmHg 66%
    18:00 +13°C° 0 mm 1 m/s 735 mmHg 68%
    19:00 +13°C° 0 mm 1 m/s 735 mmHg 69%
    20:00 +12°C° 0 mm 1 m/s 735 mmHg 71%
    21:00 +12°C° 0 mm 1 m/s 735 mmHg 71%
    22:00 +12°C° 0 mm 1 m/s 735 mmHg 70%
    23:00 +11°C° 0 mm 1 m/s 736 mmHg 70%

    15 Dezembro, Sexta-feira

    Tempo Temperatura Precipitação Vento Pressão Humidade
    00:00 +11°C° 0 mm 1 m/s 735 mmHg 68%
    01:00 +11°C° 0 mm 1 m/s 735 mmHg 67%
    02:00 +11°C° 0 mm 1 m/s 735 mmHg 66%
    03:00 +11°C° 0 mm 1 m/s 735 mmHg 65%
    04:00 +11°C° 0 mm 1 m/s 735 mmHg 65%
    05:00 +10°C° 0 mm 1 m/s 736 mmHg 65%
    06:00 +11°C° 0 mm 1 m/s 736 mmHg 63%
    07:00 +11°C° 0 mm 1 m/s 736 mmHg 61%
    08:00 +12°C° 0 mm 1 m/s 737 mmHg 59%
    09:00 +14°C° 0 mm 1 m/s 737 mmHg 54%
    10:00 +16°C° 0 mm 1 m/s 737 mmHg 48%
    11:00 +18°C° 0 mm 1 m/s 737 mmHg 43%
    12:00 +19°C° 0 mm 1 m/s 737 mmHg 43%
    13:00 +19°C° 0 mm 1 m/s 737 mmHg 44%
    14:00 +18°C° 0 mm 2 m/s 736 mmHg 45%
    15:00 +16°C° 0 mm 1 m/s 736 mmHg 55%
    16:00 +15°C° 0 mm 1 m/s 737 mmHg 64%
    17:00 +13°C° 0 mm 1 m/s 737 mmHg 74%
    18:00 +13°C° 0 mm 1 m/s 737 mmHg 76%
    19:00 +12°C° 0 mm 1 m/s 737 mmHg 79%
    20:00 +12°C° 0 mm 1 m/s 738 mmHg 81%
    21:00 +12°C° 0 mm 1 m/s 738 mmHg 81%
    22:00 +11°C° 0 mm 1 m/s 738 mmHg 81%
    23:00 +11°C° 0 mm 1 m/s 738 mmHg 81%

    16 Dezembro, Sábado

    Tempo Temperatura Precipitação Vento Pressão Humidade
    00:00 +11°C° 0 mm 1 m/s 738 mmHg 81%
    01:00 +11°C° 0 mm 1 m/s 738 mmHg 80%
    02:00 +11°C° 0 mm 1 m/s 738 mmHg 80%
    03:00 +11°C° 0 mm 1 m/s 738 mmHg 80%
    04:00 +11°C° 0 mm 1 m/s 738 mmHg 80%
    05:00 +11°C° 0 mm 1 m/s 738 mmHg 80%
    06:00 +11°C° 0 mm 1 m/s 738 mmHg 80%
    07:00 +12°C° 0 mm 1 m/s 739 mmHg 79%
    08:00 +12°C° 0 mm 1 m/s 739 mmHg 78%
    09:00 +13°C° 0 mm 2 m/s 739 mmHg 74%
    10:00 +15°C° 0 mm 2 m/s 739 mmHg 71%
    11:00 +16°C° 0 mm 2 m/s 738 mmHg 67%
    12:00 +16°C° 0 mm 2 m/s 738 mmHg 67%
    13:00 +16°C° 0 mm 2 m/s 738 mmHg 67%
    14:00 +17°C° 0 mm 2 m/s 737 mmHg 67%
    15:00 +16°C° 0 mm 2 m/s 737 mmHg 74%
    16:00 +15°C° 0 mm 1 m/s 737 mmHg 80%
    17:00 +14°C° 0 mm 1 m/s 737 mmHg 87%
    18:00 +14°C° 0 mm 1 m/s 738 mmHg 88%
    19:00 +14°C° 0 mm 1 m/s 738 mmHg 89%
    20:00 +13°C° 0 mm 1 m/s 739 mmHg 90%
    21:00 +13°C° 0 mm 1 m/s 739 mmHg 90%
    22:00 +13°C° 0 mm 1 m/s 739 mmHg 90%
    23:00 +13°C° 0 mm 1 m/s 739 mmHg 91%
    Mostrar mais